Theta_e
316 317 317 319 321 323 324 326 327 328 329 328 328 329 330 328 327 327 327 328 327 326 327 328 327 331 332 333 336 340 339 338 343 343 339 335 333 332 332 332 333 333 333 333
317 318 319 318 320 321 322 324 326 327 328 328 329 329 329 329 328 327 327 328 327 327 327 327 328 334 335 336 337 337 338 341 342 340 336 333 332 332 332 332 333 333 333 334
316 319 318 318 319 320 322 323 325 326 327 327 327 327 327 328 327 326 326 326 326 327 327 328 328 336 336 337 337 337 338 341 339 336 333 332 332 332 333 331 332 333 333 333
316 316 319 319 319 320 322 323 324 325 326 326 325 328 327 327 328 328 327 327 328 327 327 327 329 337 336 337 337 338 340 339 336 333 333 333 332 330 330 332 331 333 333 331
315 316 317 319 319 319 321 321 323 324 324 325 324 325 325 326 327 328 329 327 327 326 327 327 333 336 336 336 337 338 338 336 335 334 333 332 330 330 331 330 332 331 333 330
313 315 317 317 319 320 320 321 322 324 324 326 325 325 326 327 328 329 329 327 327 328 328 331 335 336 335 335 337 337 337 336 336 334 334 331 333 333 331 333 333 331 330 328
312 314 316 318 318 320 321 322 323 325 325 327 324 326 327 328 329 328 329 327 327 330 332 334 335 334 335 335 336 336 336 336 335 333 333 333 334 334 334 333 330 333 331 327
312 312 314 317 318 320 321 322 323 326 327 325 325 327 328 329 327 327 327 327 331 333 333 334 334 334 334 335 335 335 335 335 333 332 332 333 333 334 331 332 332 330 331 329
319 312 313 316 318 318 321 323 323 324 326 326 329 329 329 329 329 327 328 327 331 333 334 334 334 334 334 334 334 335 334 333 333 331 333 333 334 333 333 330 328 330 328 329
317 317 313 317 318 318 320 322 322 325 326 329 328 330 331 329 328 328 330 329 331 334 334 334 334 334 334 334 335 335 334 333 331 332 332 332 334 334 333 333 332 329 331 329
314 319 319 315 319 318 319 321 322 324 325 327 329 329 330 330 329 329 331 331 334 335 334 334 334 334 334 334 334 334 333 330 331 332 332 332 332 334 333 333 331 330 330 329
314 318 322 319 319 319 319 321 323 326 327 325 328 328 327 328 330 329 331 333 335 334 333 333 333 333 334 334 334 333 330 329 331 331 332 332 333 334 333 330 330 329 329 328
315 318 321 324 322 319 319 321 324 325 327 326 327 328 328 329 331 331 333 333 334 333 333 333 333 333 334 334 334 330 329 328 329 330 331 332 333 333 333 331 329 329 328 329
311 317 319 326 323 319 320 321 323 325 327 327 326 327 326 329 331 332 333 333 333 333 332 333 333 333 333 333 331 328 327 328 329 330 330 332 334 333 331 330 330 329 329 328
313 317 317 319 321 321 320 321 324 325 326 327 326 325 328 331 331 332 333 332 333 333 332 333 332 333 333 332 329 327 327 327 328 329 331 332 333 332 331 330 330 329 328 329
313 319 315 318 319 322 321 321 322 324 324 325 325 325 326 329 327 328 328 331 333 333 332 333 332 333 332 331 328 326 327 327 327 329 332 332 332 331 331 331 330 329 329 329
312 318 318 321 320 321 321 322 322 322 324 324 323 324 324 325 325 327 328 329 332 333 333 333 332 333 332 330 327 326 326 327 328 330 332 332 331 331 331 331 331 331 330 330
312 315 318 321 320 324 321 322 322 322 323 323 323 323 324 326 326 325 326 329 329 332 333 333 333 333 332 329 327 325 326 326 327 330 331 331 331 331 331 331 331 332 330 331
311 313 318 322 325 324 322 323 322 322 324 325 325 323 325 325 324 325 328 329 331 332 333 333 333 333 332 329 327 325 326 325 327 330 331 331 331 332 333 333 332 331 331 330
312 313 316 320 326 329 326 323 322 325 329 324 324 325 326 325 326 332 328 328 330 334 333 334 333 334 332 328 327 325 326 325 327 329 331 331 331 332 332 334 334 334 332 332
316 316 318 320 324 326 320 322 321 325 328 323 323 324 324 327 328 325 326 328 329 331 334 334 334 334 333 329 327 326 326 324 326 327 331 332 332 332 333 333 334 333 333 332
316 318 319 320 325 328 318 321 325 323 321 321 322 322 323 324 325 326 327 328 329 330 334 334 334 334 333 329 327 326 326 325 326 327 330 332 332 332 333 333 333 334 333 332
319 315 316 318 316 313 315 316 317 318 320 320 320 320 321 324 326 327 328 329 330 330 333 334 335 335 333 329 327 326 326 325 325 326 329 332 332 332 333 333 332 332 333 332
313 311 314 317 313 314 314 314 314 316 317 319 318 319 321 323 325 328 330 331 331 332 331 333 334 335 334 330 328 326 326 325 324 326 328 331 332 332 332 331 329 330 330 330
312 311 313 313 311 314 314 314 314 315 316 318 318 319 320 321 324 326 329 333 333 333 332 333 334 335 335 331 329 326 326 324 324 326 327 329 332 332 332 330 328 327 328 329
311 311 314 314 312 312 313 313 314 314 316 316 317 319 320 320 322 324 327 330 334 335 333 331 333 335 335 332 329 326 326 325 325 325 327 328 329 332 331 330 330 329 328 326
Wind_Speed
30 19 27 44 37 33 29 27 31 32 27 29 31 32 25 24 32 32 36 36 29 36 36 32 27 17 20 16 17 19 23 25 28 24 24 22 19 15 13 12 13 14 13 16
24 31 46 26 32 31 33 32 33 29 25 23 27 28 27 25 26 32 38 40 34 33 38 31 20 12 11 12 15 17 19 24 25 24 22 19 16 12 11 10 11 11 13 15
31 44 25 33 31 32 33 33 29 30 24 22 23 27 30 27 29 34 39 41 39 38 36 28 22 10 8 11 14 17 20 24 24 20 19 16 13 11 10 11 10 11 11 14
28 34 32 32 34 34 32 30 27 25 21 20 21 23 26 20 24 24 31 31 30 29 28 27 16 10 11 12 14 17 21 23 22 23 18 16 12 9 9 8 8 9 11 11
33 28 33 36 42 32 37 25 26 26 21 23 26 18 18 20 22 22 21 28 32 31 29 26 16 13 13 15 17 20 22 23 21 20 15 13 10 8 6 7 8 11 11 12
31 34 27 39 33 28 30 27 25 20 19 20 24 21 22 22 20 22 21 25 24 25 23 10 14 16 17 17 20 22 23 21 19 16 14 11 9 6 5 5 7 11 12 10
29 30 28 29 31 35 28 25 16 17 17 22 16 19 23 19 20 19 15 20 15 6 11 16 19 19 21 23 23 23 22 20 17 15 12 9 6 5 5 5 7 7 8 6
22 26 34 28 28 36 32 28 17 29 13 18 23 18 13 16 5 8 19 12 9 11 14 18 20 22 24 24 24 22 20 19 16 14 11 8 6 3 2 4 4 6 3 4
15 28 29 34 24 26 39 28 35 24 20 14 15 16 19 18 16 8 10 19 14 13 17 21 23 24 24 24 23 22 20 17 15 13 11 9 6 5 5 5 3 3 5 3
14 21 29 27 29 33 32 29 22 20 25 19 13 12 8 5 10 12 12 17 17 18 21 23 24 24 24 23 21 20 18 16 14 12 10 8 7 6 3 3 3 5 7 6
19 5 20 33 31 31 25 25 29 22 19 14 12 12 7 4 4 14 14 19 20 22 24 25 25 24 23 22 20 19 17 15 14 12 10 9 7 6 4 4 5 4 6 6
12 7 15 23 29 31 32 29 31 17 25 18 11 3 4 9 10 13 9 13 21 23 25 25 26 25 24 22 20 18 16 14 13 12 9 8 6 6 5 5 7 5 6 6
7 11 13 6 16 30 30 32 27 28 18 19 10 5 7 7 4 5 10 17 22 24 25 25 25 25 23 21 20 18 15 15 13 12 9 7 7 5 5 7 7 8 7 6
8 12 18 6 10 22 30 34 30 28 17 18 18 14 13 13 10 7 13 18 22 23 25 25 24 24 22 21 20 17 16 15 14 12 9 8 5 5 7 7 9 10 7 7
4 17 23 5 21 27 27 30 27 31 22 17 20 12 12 16 14 11 14 17 19 22 23 24 24 23 22 21 19 17 16 15 14 12 10 6 6 7 8 7 8 10 10 9
5 12 19 9 19 27 19 29 25 27 20 19 14 17 10 15 14 11 12 16 18 20 22 23 23 23 23 22 20 18 17 16 14 13 11 10 9 9 8 8 8 11 10 11
9 10 3 6 18 24 16 23 28 22 25 17 11 9 11 5 6 4 12 3 17 19 20 22 24 24 23 22 21 20 18 17 15 14 11 12 11 11 10 9 9 8 9 10
10 13 3 4 14 10 12 12 19 21 21 18 12 13 7 9 10 10 8 12 5 16 18 20 21 22 22 22 21 19 19 18 16 15 13 13 12 11 12 10 10 9 11 11
13 5 4 3 9 15 3 5 4 19 11 12 7 6 10 10 6 1 8 9 9 8 18 19 21 22 21 22 23 21 20 19 17 16 15 14 14 12 11 10 10 9 6 7
6 4 2 6 7 5 7 8 7 2 11 9 6 6 8 8 7 9 9 10 10 9 19 20 22 23 23 23 23 23 22 20 19 18 16 15 14 12 11 9 9 8 6 6
4 2 9 9 9 7 12 12 2 11 6 5 7 7 6 6 10 14 11 8 7 7 12 19 22 24 24 24 24 23 22 22 20 18 18 16 15 13 12 9 7 9 9 5
2 2 5 5 4 4 20 5 3 6 7 8 8 9 6 8 10 11 9 8 6 5 11 19 23 24 25 25 25 23 23 22 21 20 19 18 16 14 11 10 10 8 9 10
1 4 3 5 2 13 10 16 16 15 10 10 9 9 9 9 10 10 9 7 6 6 11 20 23 25 26 26 26 25 23 23 23 22 21 20 17 15 13 11 11 11 10 10
5 8 3 2 6 9 14 16 16 12 13 11 11 10 10 11 11 11 9 6 5 6 10 19 24 27 27 27 26 25 24 24 24 23 22 21 19 17 15 13 12 11 11 10
5 6 7 2 8 9 1 13 13 11 12 14 12 12 11 11 12 12 10 7 5 6 9 18 24 26 27 28 27 26 26 26 26 24 23 22 21 20 17 15 13 11 11 11
4 3 3 2 4 6 12 17 10 11 14 13 14 14 12 12 13 14 13 11 7 6 9 15 22 26 28 29 29 28 28 28 28 27 25 24 22 22 19 18 17 17 14 17
Wind_Direction
204 208 218 219 218 235 242 246 247 250 250 237 255 270 263 257 263 264 267 266 262 268 277 280 279 263 247 250 225 209 204 199 194 192 193 197 204 204 212 222 234 243 255 262
217 218 222 221 230 228 242 249 249 258 258 256 258 262 268 261 263 263 268 271 268 268 275 272 268 236 251 224 210 198 189 187 184 188 187 195 198 209 218 229 237 247 264 265
221 226 227 226 230 232 231 236 245 254 262 262 267 270 264 264 265 270 266 269 271 266 266 266 254 218 208 201 191 181 178 178 174 179 178 181 187 194 215 233 247 263 266 260
234 238 231 226 231 227 235 228 241 253 259 256 249 266 258 263 264 259 264 265 260 259 258 251 235 186 185 186 174 169 169 167 165 171 178 178 186 208 225 223 248 238 262 261
241 229 232 240 226 228 243 236 236 238 248 263 255 259 270 270 267 269 265 259 259 259 251 245 184 184 178 173 166 162 160 158 168 159 173 181 190 220 236 239 245 268 257 259
244 246 235 232 243 228 238 235 241 237 240 248 246 252 263 267 269 268 263 255 251 242 231 196 160 167 166 162 159 155 156 158 160 164 171 160 189 199 220 236 256 265 274 270
243 247 247 242 220 235 224 222 221 228 228 242 238 243 261 279 276 271 275 249 259 115 150 168 165 160 157 157 152 154 155 156 160 163 164 167 173 194 220 245 285 269 271 246
226 227 233 232 227 214 223 212 210 211 216 235 224 243 261 250 266 284 238 244 162 180 167 169 161 157 156 153 152 154 155 156 161 162 163 164 184 185 243 262 240 271 246 170
291 236 224 228 223 237 211 217 217 240 238 249 240 216 233 251 252 242 222 194 156 166 164 160 155 155 154 155 155 155 156 159 162 164 162 172 183 181 210 227 119 259 157 163
285 277 222 222 217 238 232 210 207 222 243 234 245 216 242 172 206 180 177 178 161 161 160 155 153 154 155 155 155 155 157 160 162 161 169 176 182 184 184 170 142 187 162 158
279 263 257 215 207 214 216 211 212 218 227 230 236 240 201 182 214 180 177 160 158 165 160 156 154 155 156 157 156 156 159 159 161 168 172 179 185 181 186 164 149 177 156 161
261 289 257 225 218 215 215 214 204 220 213 234 254 158 88 185 200 188 169 134 159 163 159 158 157 157 160 157 159 160 160 161 167 169 175 183 191 183 169 160 165 160 140 166
3 237 253 257 249 196 220 209 205 219 222 210 227 153 161 159 125 165 128 150 156 158 160 159 160 163 160 160 164 164 161 165 170 169 175 183 197 179 156 161 158 157 161 165
294 260 256 247 243 197 213 203 206 201 217 197 225 120 174 156 143 148 127 148 156 161 162 162 166 165 163 165 167 165 164 168 168 171 173 166 178 155 150 158 154 156 159 165
262 247 242 271 294 301 210 206 198 194 206 201 197 193 164 125 104 105 137 156 160 166 168 168 170 168 165 168 166 166 167 168 168 168 163 164 142 137 151 154 154 152 162 156
262 273 253 277 274 281 209 213 202 196 199 222 183 193 164 131 129 129 130 171 175 175 176 173 173 171 169 170 168 169 169 168 166 165 158 148 144 146 151 145 146 148 153 151
296 280 229 237 257 260 212 202 196 200 195 213 192 196 204 153 142 124 78 120 189 183 181 180 178 175 173 172 170 171 170 167 165 162 154 149 149 150 147 148 150 152 154 150
261 288 253 265 248 217 201 204 198 192 194 203 223 195 160 54 41 31 0 341 226 193 182 182 183 178 174 171 171 170 171 168 166 164 159 155 158 157 156 158 159 165 170 163
230 261 271 251 229 105 81 150 173 186 151 29 319 260 35 42 346 185 39 340 327 271 182 185 183 179 177 174 171 171 171 169 169 167 164 161 162 161 160 166 170 172 181 164
196 204 235 259 226 169 318 15 21 359 104 43 8 23 8 346 242 92 358 344 335 319 181 181 181 179 177 178 176 172 173 172 174 170 167 167 169 169 164 157 158 163 155 136
194 253 243 259 244 116 336 322 289 206 81 34 35 39 3 316 334 323 318 324 324 292 186 182 180 180 179 179 178 178 176 177 175 171 169 166 164 162 159 155 156 150 143 140
296 223 213 228 235 103 343 50 11 60 72 43 32 31 2 330 315 311 309 303 290 264 207 186 181 181 181 182 181 183 181 177 174 173 172 170 166 166 167 160 148 148 147 127
229 358 317 40 46 295 35 55 42 21 43 28 18 13 1 346 342 321 308 296 273 238 212 191 186 183 184 185 185 185 185 179 176 175 176 176 174 173 172 167 155 156 153 146
11 8 330 311 9 324 54 40 26 18 2 7 11 9 2 356 346 339 326 307 273 238 212 196 190 187 186 187 188 187 186 182 179 178 178 179 179 177 176 175 168 167 163 164
1 346 338 17 6 310 258 7 357 5 358 356 3 359 5 356 354 348 338 329 288 238 221 203 195 190 190 189 189 187 187 184 183 182 181 182 184 182 182 179 181 179 176 176
54 358 357 356 359 309 308 322 347 346 346 342 346 347 358 355 351 351 352 349 333 264 227 206 200 195 193 192 191 188 189 187 185 185 186 186 186 189 189 186 190 191 189 191